Theta_e
349 355 364 366 366 365 363 363 364 364 366 364 363 362 362 360 359 362 360 360 359 359 358 358 359 358 358 358 356 355 356 359 362 362 362 362 363 363 364 353 355 352 357
351 355 365 366 366 367 365 364 364 366 363 364 363 362 361 361 360 361 360 360 361 360 359 359 359 358 358 359 359 357 355 356 359 362 361 361 360 361 358 345 340 354 362
348 355 358 366 366 366 366 365 364 363 361 362 361 361 362 362 361 360 359 358 358 359 359 358 358 359 360 359 359 358 356 355 356 361 350 340 349 360 358 356 358 360 360
352 354 357 366 366 364 365 363 364 360 360 360 361 359 359 360 361 361 360 359 360 359 359 359 358 361 360 360 358 360 355 356 358 357 339 343 348 360 361 362 362 361 360
353 356 360 367 366 364 364 364 363 362 361 361 361 361 361 359 359 360 359 357 360 360 360 360 360 360 360 361 360 357 359 359 359 357 340 344 350 359 361 362 362 362 361
355 358 363 366 365 364 363 363 362 362 360 359 360 360 361 359 360 361 361 360 359 360 360 359 360 360 360 360 360 360 359 360 359 357 352 355 353 360 361 361 361 359 361
353 356 360 367 366 365 363 362 362 360 360 359 359 361 361 361 360 361 361 362 360 360 359 360 359 358 358 358 357 358 360 360 356 356 353 356 356 362 361 360 359 359 360
354 354 357 364 366 365 362 361 360 361 360 360 361 361 361 361 361 360 359 358 360 360 360 360 360 358 357 359 357 357 358 358 356 354 355 353 361 363 360 360 359 358 359
350 352 356 357 361 362 362 361 360 360 360 359 360 360 360 360 360 360 361 360 359 359 360 359 360 360 358 359 357 358 358 357 352 352 354 353 362 363 360 359 359 358 358
348 348 351 355 353 356 357 363 363 361 361 361 361 363 361 360 361 361 361 359 358 360 361 359 358 359 359 359 359 358 359 359 355 351 346 353 362 361 360 359 358 358 358
347 348 350 350 353 356 357 361 363 362 364 363 362 363 359 359 358 357 363 362 362 360 359 359 359 358 358 359 359 359 360 354 353 352 344 356 361 361 360 359 358 357 357
342 345 347 349 350 356 355 362 362 358 356 358 360 362 366 362 364 359 361 363 360 362 362 361 361 361 360 355 354 357 354 352 349 350 353 355 361 358 358 357 354 357 357
345 346 348 349 356 355 354 355 358 361 361 360 368 367 364 363 357 357 360 357 360 360 357 359 359 359 357 360 355 354 354 352 349 355 354 355 361 358 356 356 356 354 356
343 347 348 352 362 357 354 354 357 358 362 358 362 366 366 360 362 364 360 360 361 360 359 360 360 357 357 356 356 353 351 351 350 350 352 360 359 357 355 354 355 356 354
344 347 350 355 363 365 366 357 358 353 354 359 360 362 365 359 359 357 369 364 364 361 358 357 359 359 357 359 360 357 352 355 356 354 352 360 360 359 355 353 352 354 354
346 346 348 351 360 360 365 368 361 358 351 357 362 367 372 368 361 366 369 367 364 365 367 363 363 362 361 360 355 358 358 356 359 357 354 356 359 359 357 355 355 354 353
345 346 348 351 354 361 364 366 362 357 355 356 361 369 371 374 359 372 369 366 361 366 369 367 364 360 352 358 354 355 357 358 360 357 357 352 356 353 359 357 356 354 353
344 348 351 347 350 355 361 363 360 360 354 361 361 362 371 374 376 370 363 360 369 366 363 359 352 352 352 348 348 355 354 359 360 361 359 354 352 353 358 353 358 356 353
346 349 350 350 348 353 365 362 362 368 367 366 365 366 372 372 372 369 362 363 369 363 358 356 352 352 351 344 349 356 357 356 356 360 355 356 353 355 355 354 357 358 356
345 351 354 350 362 360 362 368 364 362 364 364 361 360 367 371 372 372 366 370 371 357 353 357 359 353 354 354 349 354 358 352 351 352 352 357 357 358 356 356 355 356 358
345 348 351 355 367 360 358 357 360 357 358 361 361 362 373 369 370 369 373 364 367 357 359 357 355 355 353 354 354 352 356 351 350 351 352 352 355 353 355 356 355 355 354
347 349 352 357 365 361 359 359 360 359 357 362 368 370 370 370 371 368 366 357 365 359 359 353 353 350 352 351 347 345 340 342 348 349 348 348 351 351 351 352 353 353 353
350 352 353 359 361 359 364 364 368 371 373 367 368 364 366 368 371 370 370 366 364 359 352 355 353 350 344 350 346 345 338 337 343 347 346 347 346 344 347 348 348 349 349
351 355 359 359 364 362 365 365 366 358 362 354 351 356 366 370 368 368 370 369 362 358 355 356 353 355 352 344 347 346 348 348 338 336 342 344 345 343 345 344 345 346 346
349 353 358 363 363 362 364 368 365 365 363 353 352 363 362 369 367 368 364 364 362 360 359 359 358 355 351 348 343 342 345 345 346 339 335 336 341 343 344 341 340 339 339
349 352 357 361 365 366 365 365 368 368 362 362 353 361 360 362 367 363 362 364 361 360 359 359 358 354 351 347 347 345 341 340 340 339 338 337 334 340 340 339 336 335 335
Wind_Speed
13 13 12 16 16 17 17 16 16 14 15 15 14 14 15 14 13 12 14 13 11 10 9 7 6 5 5 4 5 7 7 6 7 7 9 10 8 11 15 22 13 13 15
17 15 13 13 16 17 15 15 14 14 15 14 12 12 13 12 12 12 11 10 10 8 7 6 5 5 5 5 6 5 5 5 5 7 9 9 8 12 21 20 10 10 14
18 15 14 12 15 17 16 15 14 15 13 11 10 12 12 11 12 12 9 8 8 9 7 5 6 6 6 6 7 5 7 4 5 13 26 11 5 9 16 23 18 14 14
15 14 14 13 13 15 15 13 14 14 10 9 9 10 10 9 10 12 8 8 8 9 7 5 7 8 7 6 7 6 7 7 7 21 15 13 9 10 13 15 15 14 12
16 16 13 13 14 13 14 12 12 10 11 9 8 8 10 9 9 11 8 8 8 8 8 8 8 8 6 5 7 7 6 6 7 11 23 14 6 9 12 13 13 13 12
19 16 14 14 14 14 13 10 11 10 9 8 7 8 9 9 10 10 8 9 9 7 6 8 7 7 7 4 5 6 6 8 7 7 17 13 7 11 11 10 13 11 13
19 16 15 14 14 13 12 10 9 8 7 8 6 6 9 8 9 11 9 8 9 9 7 7 7 7 6 5 2 2 5 7 6 2 5 11 10 12 11 11 11 12 10
21 18 14 13 12 12 12 10 8 7 8 6 6 8 7 8 9 9 9 8 8 6 7 7 6 7 6 5 4 4 6 6 8 8 6 8 12 12 12 11 9 10 9
21 18 14 13 11 12 11 10 7 6 7 7 5 5 7 7 8 8 8 8 7 8 7 7 7 7 6 7 6 5 6 4 0 8 9 3 13 12 11 10 9 9 8
20 16 13 12 11 9 9 10 9 8 7 7 7 7 7 7 8 8 7 7 7 7 8 6 7 7 8 8 8 8 9 9 5 13 5 6 11 13 11 10 9 7 7
16 17 16 14 14 12 13 10 9 10 9 8 8 9 7 5 7 8 8 9 8 8 8 8 8 9 9 10 10 10 10 5 9 6 4 8 11 13 12 10 8 7 6
14 16 15 15 12 12 8 11 9 9 7 7 7 7 5 6 4 8 9 10 11 11 11 11 11 12 11 5 4 8 5 3 7 10 6 11 11 16 14 12 6 6 6
11 8 9 8 8 12 10 8 6 5 5 7 7 5 6 3 7 4 3 5 4 5 4 7 7 4 4 3 4 4 4 2 3 6 10 13 14 16 17 16 10 5 4
11 11 9 15 7 7 5 5 9 7 5 5 7 6 5 3 1 5 3 4 5 5 5 6 3 6 7 10 8 5 5 4 3 3 9 18 14 12 13 14 14 8 4
12 10 13 13 5 5 3 5 4 5 5 5 6 6 5 5 4 1 0 2 3 5 4 2 4 3 5 9 7 6 7 5 5 4 6 20 17 14 11 9 8 9 7
12 12 12 12 7 5 3 3 1 6 7 4 3 4 2 3 3 3 2 2 2 3 2 2 2 3 4 4 5 8 7 6 7 6 3 10 15 12 12 12 13 13 11
13 14 13 12 13 7 5 1 4 7 6 5 6 8 4 3 4 1 1 3 2 3 3 3 5 4 4 5 3 3 8 8 6 7 6 6 9 17 16 14 16 14 14
13 13 13 11 15 10 7 5 6 5 8 5 6 6 6 3 0 1 4 4 1 3 4 2 2 1 2 4 1 2 3 4 2 5 6 6 6 5 13 17 18 17 14
11 13 11 9 16 12 9 6 6 4 1 4 2 5 6 5 4 2 2 2 4 4 2 2 3 4 2 3 3 1 2 5 2 1 5 2 9 8 7 15 20 17 15
13 12 8 9 8 12 8 4 4 3 3 4 0 8 6 3 2 2 3 2 2 4 5 4 5 4 4 3 0 3 1 5 6 3 3 2 5 5 5 7 7 7 14
14 12 11 9 7 9 8 6 4 5 6 4 6 8 4 5 5 2 2 3 4 4 4 5 3 4 2 3 2 3 2 5 7 6 6 5 6 7 7 6 3 2 1
16 14 11 9 8 7 6 6 6 6 1 3 6 7 5 7 3 3 3 3 3 4 6 4 2 3 3 3 1 1 2 2 3 4 5 3 4 6 9 6 6 6 5
18 17 14 10 11 9 8 5 4 3 3 1 1 2 5 6 4 3 3 3 3 4 3 3 4 3 3 1 0 1 1 1 2 2 4 5 6 5 6 6 6 5 6
17 17 16 13 12 11 9 7 7 6 1 4 7 2 6 7 4 4 3 1 3 3 4 2 4 5 3 4 1 2 2 2 2 1 3 3 4 6 5 4 5 5 5
17 16 16 16 13 11 11 9 7 5 4 4 12 6 7 6 5 2 5 6 1 2 4 4 5 5 4 3 4 3 2 2 3 2 4 3 4 4 5 5 5 5 7
16 15 16 16 14 12 12 11 9 7 8 5 3 3 4 6 4 4 2 6 4 5 4 4 3 4 4 3 4 5 2 2 1 1 2 5 7 4 5 5 5 4 5
Wind_Direction
123 123 111 108 105 103 98 93 92 95 90 86 84 90 91 93 95 99 107 112 122 128 128 126 118 121 120 104 98 87 89 83 82 83 88 85 89 90 84 42 355 99 102
126 123 119 118 109 104 108 101 99 86 85 86 87 90 94 92 92 97 103 124 133 131 138 146 152 149 147 147 136 108 114 105 103 99 72 82 72 93 96 127 235 118 120
124 127 127 123 112 112 110 108 98 89 84 85 91 89 92 91 91 87 100 115 116 134 141 168 172 169 162 164 154 142 155 151 136 94 34 340 326 109 127 152 170 130 133
131 129 131 123 117 116 113 109 102 102 97 87 92 89 93 88 88 89 98 107 106 113 118 140 151 158 161 162 167 152 163 182 177 106 121 254 259 129 118 120 125 120 118
144 132 131 128 127 123 119 115 107 103 103 97 95 99 98 93 95 96 103 98 94 108 118 123 139 144 135 140 148 159 167 200 212 144 162 207 258 132 122 122 120 121 137
117 123 135 135 133 128 124 122 116 105 103 95 95 94 103 102 97 96 109 108 102 106 112 124 121 131 122 136 167 166 180 222 237 236 162 145 147 129 120 102 110 109 114
126 135 141 138 134 130 128 129 123 125 106 102 101 104 113 107 110 109 114 105 124 127 127 129 135 129 131 142 170 215 239 241 262 198 114 123 128 129 112 106 110 115 114
137 138 141 137 140 143 138 135 139 123 118 110 131 120 111 125 122 126 122 126 125 128 131 135 141 142 150 152 182 234 255 294 354 4 71 121 125 123 121 121 119 116 122
132 131 137 144 150 149 144 139 141 142 142 139 119 134 144 151 141 143 136 135 144 151 152 154 160 163 175 179 188 226 259 270 13 63 345 0 129 126 127 127 125 127 133
125 142 150 149 158 162 160 152 157 164 171 161 157 184 176 177 171 165 154 160 165 171 173 175 175 184 192 207 198 226 246 258 220 96 277 251 138 130 133 134 136 147 152
137 149 151 162 173 189 145 154 167 180 174 171 185 201 196 217 178 161 189 168 186 189 194 200 197 204 212 220 220 233 253 268 87 113 152 209 153 135 135 132 141 152 158
134 158 153 171 152 163 141 155 182 180 186 195 200 178 216 200 188 198 180 197 197 198 199 207 214 213 219 228 225 235 255 250 126 132 179 224 155 145 130 120 126 156 163
152 159 167 97 149 158 144 181 173 189 183 182 180 181 218 173 162 188 176 194 203 228 215 217 214 229 225 289 230 224 275 205 114 145 185 201 182 161 144 132 113 134 177
177 154 154 161 120 118 132 213 162 188 178 161 180 196 167 354 219 211 199 213 201 199 205 253 230 195 196 202 213 206 230 248 142 143 175 193 186 179 161 149 147 145 172
184 162 149 121 117 92 159 229 141 165 163 189 168 187 154 185 209 233 168 136 254 157 204 173 187 155 221 200 201 202 226 208 210 184 177 189 182 178 168 177 174 172 187
179 165 144 137 132 143 238 350 357 58 140 219 147 156 181 197 135 207 187 218 281 100 202 237 140 230 228 236 186 203 209 234 186 200 202 179 176 174 181 191 203 193 200
182 162 150 152 151 161 210 194 267 172 235 134 166 159 196 177 24 268 226 291 198 195 219 216 202 224 259 226 223 182 217 214 190 203 161 178 167 194 183 215 213 210 211
187 154 147 183 150 174 180 184 241 227 221 181 153 177 159 155 93 298 319 328 160 256 244 221 191 223 168 276 70 138 166 203 153 213 201 135 164 199 185 207 229 221 224
176 152 162 194 155 168 158 176 253 251 354 301 200 139 140 145 174 185 303 214 239 259 312 82 27 31 306 338 11 138 196 25 344 240 24 256 181 185 180 216 224 221 229
159 151 197 172 156 154 145 202 213 276 263 258 157 104 295 103 132 88 317 193 228 315 67 34 33 345 321 60 166 359 22 122 69 326 254 124 129 138 166 202 209 221 232
157 158 185 169 155 150 147 184 222 215 215 225 120 87 160 102 81 33 175 279 282 83 80 40 344 285 318 41 40 12 346 89 113 112 83 75 120 154 104 103 112 164 274
158 163 176 179 154 163 181 188 199 222 231 207 145 140 126 112 118 251 280 329 303 92 72 59 352 312 307 77 309 201 60 1 67 111 129 160 151 136 125 115 115 125 108
164 164 173 185 167 176 194 195 213 266 158 29 61 148 157 145 176 94 346 87 33 39 98 5 25 30 337 32 338 231 24 56 115 12 82 56 45 48 95 101 86 50 105
170 168 168 179 174 182 209 199 206 206 187 47 336 204 144 135 144 146 98 336 43 38 71 122 50 348 5 342 267 129 316 140 135 108 71 107 108 85 40 101 117 91 74
182 174 169 173 180 188 197 228 194 213 191 120 202 194 160 129 123 109 193 110 108 14 95 75 47 20 355 346 348 349 44 249 155 194 147 172 87 138 107 75 57 51 41
179 175 170 171 182 189 191 208 240 212 222 132 76 241 145 110 116 141 284 134 142 121 131 92 107 63 22 24 355 313 5 11 9 2 108 162 151 144 115 96 73 61 52